Zurück zum Katalog

STARLINK-5030

AktivKommunikationVLEO
NORAD 55418·PAYLOAD·🇺🇸 United States

Gestartet Jan 31, 2023 von Vandenberg Space Force Base

Loading…

Nächste Überflüge (nächste 24 Stunden)

TLE

AktuellSource: CelesTrak SupGP

Epoche: Sep 15, 2026, 01:39 UTC

1 55418C 23014AD  26258.06923611  .00677660  00000+0  55718-1 0  2580
2 55418  70.0003 326.9755 0003115 270.7632 288.3896 14.98725171    19

Verfolge STARLINK-5030 in Echtzeit mit AllMySat

Download on the App Store